Location: Unspecified
(47.6577°N, 23.5639°E)
Time: 05:07:03
(UTC+02:00)

ISS - Pass Details

Date: 15 February 2017
Orbit: 399 x 408 km, 51.6° (Epoch: 28 February)

Event Time Altitude Azimuth Distance (km) Brightness Sun altitude
Rises 19:09:57 0° 287° (WNW) 2,324 2.0 -14.2°
Reaches altitude 10° 19:12:27 10° 268° (W) 1,458 0.9 -14.6°
Maximum altitude 19:14:47 18° 222° (SW) 1,059 -0.7 -15.0°
Drops below altitude 10° 19:17:05 10° 176° (S) 1,447 -0.5 -15.4°
Enters shadow 19:18:40 - 162° (SSE) 1,967 0.0 -15.7°
